Tracking 28335 objects as of 4-Dec-2023
HD Live streaming from Space Station
objects crossing your sky now

CZ-3C DEB

Track CZ-3C DEB now!


NORAD ID: 39340
Int'l Code: 2010-057E
Perigee: 494.4 km
Apogee: 35,446.5 km
Inclination: 19.9 °
Period: 629.9 minutes
Semi major axis: 24341 km
RCS: 0.3142 m2 (medium)
Launch date: October 31, 2010
Source: People's Republic of China (PRC)
Launch site: Xichang Space Center, China (XSC)

Note: This is SATELLITE DEBRIS
Your satellite tracking list
Your tracking list is empty




NASA's NSSDC Master Catalog

Two Line Element Set (TLE):
1 39340U 10057E   23336.12938306  .00001276  00000-0  82337-2 0  9992
2 39340  19.9290 322.3276 7179534 141.0850 302.9389  2.28603669 83963
Source of the keplerian elements: AFSPC